Location: Jastrz?bniki
(50.3667°N, 20.3833°E)
Time: 10:36:45
(UTC+00:00)

Sich 1 - Pass Details

Date: 05 August 2024
Orbit: 582 x 609 km, 82.5° (Epoch: 06 September)

Event Time Altitude Azimuth Distance (km) Brightness Sun altitude
Exits shadow 00:41:55 36° 238° (WSW) 937 3.5 -18.0°
Maximum altitude 00:43:09 48° 285° (WNW) 774 3.4 -17.9°
Drops below altitude 10° 00:47:15 10° 0° (N) 1,917 6.5 -17.5°
Sets 00:49:31 0° 6° (N) 2,821 7.6 -17.3°
